Location: ????????
(55.0808°N, 38.5463°E)
Time: 02:50:15
(UTC+00:00)

ALOS - Visible Passes

Search period start: 19 July 2024 00:00
Search period end: 29 July 2024 00:00
Orbit: 672 x 675 km, 98.0° (Epoch: 18 July)

Date Brightness Start Highest point End Pass type
(mag) Time Alt. Az. Time Alt. Az. Time Alt. Az.
19 Jul 4.9 22:38:46 10° ENE 22:40:00 11° E 22:41:13 10° E visible
20 Jul 2.6 00:13:31 10° NNE 00:18:08 65° ESE 00:22:42 10° S visible
20 Jul 4.4 23:10:53 10° NE 23:14:22 21° E 23:17:48 10° SE visible
21 Jul 3.5 23:44:14 10° NNE 23:48:32 37° E 23:52:49 10° SSE visible
22 Jul 4.8 22:42:42 10° ENE 22:44:29 12° E 22:46:15 10° ESE visible
23 Jul 2.5 00:17:54 10° NNE 00:22:33 70° ESE 00:27:09 10° S visible
23 Jul 4.3 23:15:10 10° NE 23:18:47 22° E 23:22:23 10° SE visible
24 Jul 3.4 23:48:32 10° NNE 23:52:55 40° E 23:57:16 10° SSE visible
25 Jul 4.8 22:46:43 10° NE 22:48:52 13° E 22:51:02 10° ESE visible
26 Jul 2.4 00:22:13 10° NNE 00:26:53 76° ESE 00:31:29 10° S visible
26 Jul 4.2 23:19:22 10° NE 23:23:08 24° E 23:26:52 10° SE visible
27 Jul 3.2 23:52:46 10° NNE 23:57:13 44° E 00:01:37 10° S visible
28 Jul 4.7 22:50:43 10° NE 22:53:11 14° E 22:55:39 10° ESE visible
